Hourly Data Report for July 17, 2003

SHERBROOKE A
QUEBEC

45°26'00.000" N
71°41'00.000" W
241.40 m
7028124
71610
YSC

Download Data

Hourly Data (July 2003)
Hourly Data Report for July 17, 2003
TIME
LST
Temp Definition
°C
Dew Point Definition
°C
Rel Hum Definition
%
Precip. Amount Definition
mm

Wind Dir Definition
10's deg

Wind Spd Definition
km/h
Visibility Definition
km
Stn Press Definition
kPa
Hmdx Definition


Wind Chill Definition


Weather Definition


00:00 18.6 16.4 87   23 11 15.0 98.56      
01:00 18.3 15.7 85   23 7 15.0 98.54      
02:00 18.3 15.4 83   25 11 15.0 98.54      
03:00 17.8 15.5 86   24 6 15.0 98.55      
04:00 17.8 15.5 86   24 7 15.0 98.58      
05:00 18.1 15.3 84   26 9 15.0 98.63      
06:00 18.1 15.4 84   24 11 15.0 98.67      
07:00 18.4 15.4 83   26 15 24.1 98.70     Cloudy
08:00 18.8 15.4 81   26 17 24.1 98.69     Mostly Cloudy
09:00 19.3 15.3 78   26 15 24.1 98.71     Mostly Cloudy
10:00 19.8 15.0 74   25 11 24.1 98.69     Mostly Cloudy
11:00 21.6 15.0 66   23 11 24.1 98.69 26   Mostly Cloudy
12:00 23.1 14.7 59   28 17 24.1 98.65 27   Mostly Cloudy
13:00 23.6 12.5 50   26 17 24.1 98.61 26   Mainly Clear
14:00 24.9 13.7 50   27 17 24.1 98.57 28   Mainly Clear
15:00 24.1 13.6 52   25 17 24.1 98.53 27   Mainly Clear
16:00 24.7 13.5 50   26 20 24.1 98.50 28   Mainly Clear
17:00 24.0 14.0 54   23 11 15.0 98.46 27    
18:00 23.3 14.8 59   22 6 15.0 98.47 27    
19:00 22.5 14.7 61   24 13 15.0 98.48 26    
20:00 21.1 14.6 66   21 7 15.0 98.46 25    
21:00 21.2 14.4 65   25 9 15.0 98.50 25    
22:00 20.6 13.7 65   25 7 15.0 98.48      
23:00 19.9 13.5 67   24 11 15.0 98.46      

Notes on Data Quality.

Legend

  • E = Estimated
  • M = Missing
  • NA = Not Available*
  • [empty] = Indicates an unobserved value
Date modified: